Showing default

KORSAT-1, 59452

Orbit data source: Space-Track

KORSAT-1, 59452 is a payload satellite owned by DAPA (KR) in LEO that was launched on Sun, 07 Apr 2024 UTC via an FALCON 9 launch vehicle from the Air Force Eastern Test Range (AFETR). Payload-class satellites include a variety of spacecraft equipped with specific instruments for various scientific and technological missions. These include communications satellites like Starlink; space stations such as the ISS; scientific satellites like the Hubble; Earth observation satellites from companies like Planet Labs, Umbra, and HawkEye 360; GPS; miniature CubeSats for education and research; and military/defense satellites.

Loading next visibility...
Identifier
59452, 2024-066L
Orbit
LEO
Country
Flag of UnknownUnknown / SKOR
Related business
Manufacturer
KAI
Mission
Operational spacecraft
Bus & Motor
CAS500?, Unknown motor
Mass
~800 kg wet, ~750 kg dry
Launch date (UTC)
2024-04-07 (1 year ago)
Launch vehicle
FALCON 9
Launch site
Air Force Eastern Test Range (AFETR)
Object type
Payload
Rocket body
Debris
Shape & HBR
Unknown
Radar Cross Section
Large (>1 m²)

Expand to show TLE details & history
Last TLE update: 13 hours ago

TLE from 13 hours ago
0 KORSAT-1
1 59452U 24066L   25246.24839336  .00009068  00000-0  75916-3 0  9994
2 59452  45.4112 292.0814 0007968 275.0948  84.9020 14.98780123 77005
Epoch: 2025-09-03T05:57Z
TLE epoch observation values (Epoch: 2025-09-03T05:57:41.186Z)
Latitude
-0.00006°
Longitude
-139.96827°
Altitude
570.221 km
Speed
7.578 km/s
True Right ascension
19h 28m 19s
True Declination
0° 00' 00"
Sunlit
Object was in full shadow at epoch
Visualization orbit readout
Latitude
Unknown
Longitude
Unknown
Altitude
Unknown
Speed
Unknown
Apparent Right ascension
Unknown
Apparent Declination
Unknown
Sunlit
N/A
Visualization observer readout
Local Sidereal Time
11:16:24
Azimuth
Unknown
Elevation
Unknown
Doppler factor
Unknown
Orbital elements
Apogee altitude
577.723 km
Perigee altitude
566.647 km
Semi-major axis
6,950.322 km
Eccentricity
0.0008
Inclination
45.4112°
RAAN
292.0814°
Arg. of periapsis
275.0948°
True anomaly
84.99295°
Mean anomaly
84.902°
Eccentric anomaly
84.94748°
Mean motion
3.74572 °/min
Orbital period
96.11 mins
BSTAR
0.00075916
Loading maneuver chart data...
Computing Atmospheric mass density...
Loading historical data...
Loading historical data...
Loading historical data...
Loading historical data...
Loading historical data...
Loading historical data...
Loading historical data...

Documentation

Showing up to 5 results
|